User: anonymous   Login
Location: Roanoke
(37.2710°N, 79.9420°W)
Time: 12:33:34
(UTC-04:00)
Language:

FENGYUN 3A - Orbit

View from above orbital plane
View from above orbital plane
View from above satellite
View from above satellite

Ground track
Ground track

The orbit data is extracted from the following two-line orbital elements,

1 32958U 08026A   15183.12291408 -.00000011  00000-0  14427-4 0  9993
2 32958 098.5017 233.0439 0009121 191.4564 168.6409 14.19563909367744
Epoch (UTC): 02 July 2015 02:56:59
Eccentricity: 0.0009121
inclination: 98.5017°
perigee height: 820 km
apogee height: 833 km
right ascension of ascending node: 233.0439°
argument of perigee: 191.4564°
revolutions per day: 14.19563909
mean anomaly at epoch: 168.6409°
orbit number at epoch: 36774

The dashed part of the orbit path shows where the satellite is in the earth's shadow,  

DLR